This is the latest recevied weather packets stored in our database for station/object EA7JCM-13. If no packets are shown the sender has not sent any weather packets the latest 10 day(s).
| Time | Temp. | Humidity | Pressure | Rain* | Wind** | Luminosity | Snow |
|---|---|---|---|---|---|---|---|
| 1778018102 | 13.89° C | 56% | 1009.8 hPa | 0 mm | - | - | - |
| 1778017802 | 13.33° C | 57% | 1010 hPa | 0 mm | - | - | - |
| 1778017503 | 13.33° C | 57% | 1010 hPa | 0 mm | - | - | - |
| 1778017202 | 13.89° C | 57% | 1010 hPa | 0 mm | - | - | - |
| 1778016903 | 13.89° C | 57% | 1010.1 hPa | 0 mm | - | - | - |
| 1778016602 | 13.89° C | 57% | 1010.3 hPa | 0 mm | - | - | - |
| 1778016303 | 13.89° C | 56% | 1010.1 hPa | 0 mm | - | - | - |
| 1778016003 | 14.44° C | 56% | 1010 hPa | 0 mm | - | - | - |
| 1778015702 | 13.89° C | 56% | 1010 hPa | 0 mm | - | - | - |
| 1778015403 | 13.89° C | 57% | 1010 hPa | 0 mm | - | - | - |
| 1778015103 | 14.44° C | 57% | 1010 hPa | 0 mm | - | - | - |
| 1778014802 | 15° C | 54% | 1009.9 hPa | 0 mm | - | - | - |
| 1778014502 | 15.56° C | 51% | 1009.8 hPa | 0 mm | - | - | - |
| 1778014203 | 15° C | 51% | 1009.7 hPa | 0 mm | - | - | - |
| 1778013902 | 15° C | 53% | 1009.9 hPa | 0 mm | - | - | - |
| 1778013603 | 15.56° C | 52% | 1009.9 hPa | 0 mm | - | - | - |
| 1778013303 | 16.11° C | 45% | 1009.8 hPa | 0 mm | - | - | - |
| 1778013002 | 16.11° C | 43% | 1009.7 hPa | 0 mm | - | - | - |
| 1778012703 | 16.67° C | 43% | 1009.8 hPa | 0 mm | - | - | - |
| 1778012403 | 16.67° C | 44% | 1009.6 hPa | 0 mm | - | - | - |
| 1778012102 | 16.67° C | 43% | 1009.7 hPa | 0 mm | - | - | - |
| 1778011803 | 16.67° C | 43% | 1009.7 hPa | 0 mm | - | - | - |
| 1778011503 | 16.67° C | 43% | 1009.5 hPa | 0 mm | - | - | - |
| 1778011203 | 16.67° C | 43% | 1009.7 hPa | 0 mm | - | - | - |
| 1778010903 | 16.67° C | 43% | 1009.3 hPa | 0 mm | - | - | - |
* Rain latest hour (hover to see other rain measurements)
** Current wind speed in m/s (hover to see current wind gust speed)